Location: Kerguer�zec
(48.4509°N, 4.7600°W)
Time: 07:37:43
(UTC+00:00)

STARLINK-1244 - Visible Passes

Search period start: 11 August 2020 00:00
Search period end: 21 August 2020 00:00
Orbit: 549 x 550 km, 53.0° (Epoch: 11 August)

Date Brightness Start Highest point End Pass type
(mag) Time Alt. Az. Time Alt. Az. Time Alt. Az.
11 Aug 4.7 21:30:56 10° WNW 21:34:55 44° N 21:38:36 12° ENE visible
11 Aug 4.0 23:10:41 10° WNW 23:14:13 62° NW 23:14:13 62° NW visible
12 Aug 4.6 21:25:30 10° WNW 21:29:30 45° N 21:32:52 14° ENE visible
12 Aug 4.1 23:05:11 10° WNW 23:08:29 55° WNW 23:08:29 55° WNW visible
13 Aug 4.4 21:20:03 10° WNW 21:24:05 48° N 21:27:10 16° E visible
13 Aug 4.3 22:59:42 10° WNW 23:02:47 47° W 23:02:47 47° W visible
14 Aug 4.2 21:14:34 10° WNW 21:18:39 52° NNE 21:21:30 18° E visible
14 Aug 4.6 22:54:14 10° WNW 22:57:08 40° W 22:57:08 40° W visible
15 Aug 4.0 21:09:06 10° WNW 21:13:12 59° NNE 21:15:52 21° E visible
15 Aug 4.8 22:48:47 10° WNW 22:51:30 33° W 22:51:30 33° W visible
16 Aug 3.8 21:03:36 10° WNW 21:07:45 67° NNE 21:10:17 22° E visible
16 Aug 5.1 22:43:23 10° WNW 22:45:55 28° WSW 22:45:55 28° WSW visible
17 Aug 3.6 20:58:06 10° WNW 21:02:16 78° NNE 21:04:44 24° ESE visible
17 Aug 5.3 22:38:02 10° W 22:40:21 23° WSW 22:40:21 23° WSW visible
18 Aug 3.6 20:52:36 10° WNW 20:56:47 88° SSW 20:59:13 24° ESE visible
18 Aug 5.6 22:32:46 10° W 22:34:51 19° WSW 22:34:51 19° WSW visible
19 Aug 3.6 20:47:07 10° WNW 20:51:16 73° SSW 20:53:44 23° SE visible
19 Aug 5.8 22:27:38 10° W 22:29:22 16° WSW 22:29:22 16° WSW visible
20 Aug 3.9 20:41:38 10° WNW 20:45:44 59° SSW 20:48:19 21° SE visible
20 Aug 6.1 22:22:47 10° WSW 22:23:57 12° WSW 22:23:57 12° WSW visible
